User: anonymous   Login
Location: Girdwood
(60.9430°N, 149.1660°W)
Time: 03:15:10
(UTC-09:00)
Language:

Iridium 86 - Orbit

View from above orbital plane
View from above orbital plane
View from above satellite
View from above satellite

Ground track
Ground track

The orbit data is extracted from the following two-line orbital elements,

1 25528U 98066B   17324.95277297 +.00000100 +00000-0 +28495-4 0  9999
2 25528 086.3933 284.2262 0002061 089.9623 270.1809 14.34216648001601
Epoch (UTC): 20 November 2017 22:51:59
Eccentricity: 0.0002061
inclination: 86.3933°
perigee height: 776 km
apogee height: 779 km
right ascension of ascending node: 284.2262°
argument of perigee: 89.9623°
revolutions per day: 14.34216648
mean anomaly at epoch: 270.1809°
orbit number at epoch: 160

The dashed part of the orbit path shows where the satellite is in the earth's shadow,  

DLR